Wind_Speed
63 64 64 60 57 55 54 54 52 50 50 51 50 48 44 44 44 41 38 37 35 33 32 32 31 30 29 29 29 29 29 29 29 29 29 29 30 31 31 32 32 32 32 33
64 65 61 59 58 57 55 55 54 52 52 53 53 51 48 47 46 43 41 39 37 36 35 34 33 32 31 31 30 30 30 30 30 30 31 31 31 31 31 32 32 33 33 33
63 62 60 60 59 58 57 55 53 53 52 53 55 55 51 48 47 45 43 41 39 38 37 36 35 34 33 32 32 31 31 32 32 32 33 32 32 32 32 32 33 34 34 34
61 60 61 61 60 58 57 53 52 53 54 55 56 57 53 50 48 46 44 42 41 40 39 38 37 36 35 34 34 33 33 33 33 33 33 33 33 32 33 34 34 35 35 35
61 60 61 61 58 57 55 52 52 53 55 56 57 59 56 51 49 47 44 43 42 41 41 40 38 37 36 36 35 34 34 34 34 34 34 34 33 34 35 35 35 35 35 35
58 59 60 58 56 56 55 54 54 54 55 59 56 58 58 52 49 47 45 44 44 43 42 41 39 38 37 36 36 35 35 34 34 34 34 34 34 34 35 35 35 35 35 36
59 60 60 59 59 58 57 56 55 56 58 60 56 58 58 50 47 45 45 45 45 44 43 41 40 39 38 37 36 36 35 35 35 34 34 34 34 35 35 35 35 35 35 35
58 60 60 60 61 59 59 57 57 57 57 58 57 57 55 49 44 43 44 44 45 44 43 41 40 39 38 37 37 36 36 35 35 34 34 34 35 35 35 35 35 35 35 35
56 59 58 59 59 59 59 59 56 55 56 57 58 55 51 48 43 42 42 43 43 43 42 40 39 38 38 37 37 36 36 35 35 35 35 35 35 35 35 35 35 35 35 35
53 55 58 57 59 60 58 57 58 58 57 57 57 54 49 44 41 40 40 40 40 40 40 39 38 37 37 37 36 36 36 35 35 35 35 35 35 35 35 35 34 34 34 35
55 55 56 58 60 60 59 58 58 57 57 57 56 53 46 42 39 37 37 38 38 38 38 38 38 37 37 36 36 36 36 36 36 35 35 35 35 34 34 34 34 34 35 35
54 56 57 56 56 55 57 57 57 56 55 55 54 51 46 42 38 36 36 37 37 37 37 37 37 37 37 37 37 37 36 36 35 35 35 34 34 34 34 34 34 35 35 35
54 55 56 57 57 57 57 58 56 54 53 53 53 48 44 41 38 37 36 36 37 37 36 36 36 37 37 37 37 37 36 36 35 34 34 34 33 34 34 34 34 35 35 35
55 55 55 56 55 56 57 57 57 56 55 53 50 46 44 41 39 38 36 36 36 36 36 36 36 36 36 36 36 36 35 35 34 34 34 33 33 33 34 34 34 35 35 35
53 54 54 55 55 55 55 56 56 56 54 52 46 45 42 41 39 38 38 37 37 36 36 37 36 36 36 35 35 35 35 34 34 34 33 33 33 33 33 33 34 34 35 36
50 53 54 54 54 55 55 55 55 55 53 52 49 46 41 41 41 40 39 38 37 37 37 37 37 36 35 35 35 35 35 34 34 33 33 33 33 33 33 34 34 34 35 36
47 50 54 56 55 54 55 53 54 55 54 53 52 45 43 43 42 41 40 40 39 38 38 37 36 36 36 35 35 35 35 34 34 33 33 33 33 33 33 34 34 35 36 36
47 47 49 52 54 56 52 50 52 53 53 51 50 46 44 43 43 43 42 41 41 40 39 38 37 37 36 36 36 35 35 34 34 34 33 33 33 33 34 34 35 35 36 37
48 47 49 50 53 53 51 49 49 51 51 49 48 46 45 45 46 45 43 42 42 42 41 39 38 38 37 36 36 36 35 35 34 34 34 33 34 34 34 35 35 36 37 38
47 48 48 50 52 51 47 46 46 47 49 46 46 45 45 46 48 43 41 43 43 42 40 39 38 38 37 36 36 35 35 35 34 34 34 34 35 35 35 35 36 37 37 38
44 45 46 48 51 48 44 44 46 46 44 44 45 45 45 46 44 39 41 42 42 41 40 39 39 38 37 37 36 35 35 35 35 35 35 35 35 35 36 36 37 37 38 38
42 43 45 47 49 47 43 42 42 41 42 42 43 44 44 43 42 41 41 41 42 41 40 40 39 39 38 37 36 35 35 35 35 35 35 35 35 36 36 37 37 37 38 38
39 40 41 46 46 44 43 42 40 39 41 41 42 42 43 42 42 41 41 40 40 40 39 39 39 38 38 37 36 36 35 35 35 35 35 35 35 36 36 37 37 37 38 38
38 39 40 43 44 43 40 39 41 41 40 40 41 41 41 40 39 39 39 39 38 38 38 38 38 37 37 37 37 36 36 36 36 35 35 35 36 36 36 37 37 37 38 39
37 38 41 44 44 43 41 39 38 38 39 41 41 42 41 40 38 38 38 37 37 36 37 37 37 36 36 36 36 35 35 35 35 35 35 36 35 36 36 36 37 38 39 40
35 37 41 44 44 44 42 41 41 39 37 38 39 39 40 40 38 37 36 37 36 35 35 35 35 35 35 35 35 34 34 35 35 35 35 35 35 36 36 37 38 39 40 40
Wind_Direction
226 228 228 229 230 232 232 232 232 232 233 234 235 234 232 234 236 236 237 239 241 243 246 249 252 254 256 259 262 265 269 272 275 277 279 282 284 286 288 289 290 290 291 292
226 227 227 228 230 231 231 232 232 232 233 235 235 235 233 234 237 237 238 240 241 243 247 251 254 256 258 260 262 265 268 271 273 276 278 281 283 286 287 288 289 289 289 291
227 227 226 227 228 230 231 231 232 234 235 237 237 235 234 234 237 238 239 241 243 245 248 251 254 256 258 260 262 265 267 270 272 275 277 280 282 284 286 286 287 288 289 290
225 225 225 226 227 229 231 232 233 234 235 237 238 238 233 235 236 238 239 241 244 246 248 251 253 255 257 259 261 264 266 269 271 274 276 278 281 282 283 285 286 287 288 289
223 223 224 225 226 228 230 231 233 234 236 237 237 239 232 234 236 238 240 242 244 247 249 251 253 255 257 259 261 264 266 268 270 273 275 276 278 280 282 283 284 285 286 287
223 222 224 224 224 225 227 229 231 234 235 237 235 240 236 232 236 239 241 244 245 247 249 252 253 254 256 258 261 263 265 267 269 271 273 275 277 279 280 282 283 284 286 287
221 222 222 221 221 221 223 225 228 231 233 236 235 239 239 235 236 239 241 244 245 247 249 251 253 254 256 258 260 262 264 266 268 269 271 274 276 278 279 281 282 283 285 286
221 221 220 221 221 222 224 225 228 231 234 237 237 239 240 238 236 237 240 242 245 247 248 250 252 254 256 258 259 261 263 265 267 269 271 273 275 277 279 280 281 283 284 285
223 224 222 222 222 223 224 226 228 232 235 237 239 239 239 239 237 236 238 241 244 246 247 249 250 252 254 256 258 260 262 264 266 269 271 272 274 276 278 279 281 282 283 284
223 224 221 221 223 223 224 226 228 230 233 236 239 238 237 238 239 237 237 239 242 244 246 248 249 250 252 254 256 259 261 264 266 268 270 272 274 275 277 279 280 281 282 283
224 225 223 223 223 223 223 224 227 231 234 236 238 238 237 238 238 237 236 238 240 242 244 247 249 251 252 254 257 259 261 263 265 267 269 271 272 274 276 277 278 280 282 283
223 225 224 224 224 225 226 227 228 230 234 235 237 236 235 236 237 236 236 237 238 241 243 245 247 249 251 253 256 258 260 262 264 266 268 269 271 273 275 277 278 279 281 283
220 222 224 224 224 223 224 225 226 229 233 235 235 234 234 236 237 237 237 237 238 240 242 244 246 248 250 252 254 257 259 261 263 265 266 268 271 273 275 276 278 279 281 282
220 222 224 225 225 225 225 225 226 227 229 231 231 231 232 233 234 236 237 237 237 240 242 244 245 247 249 252 255 257 258 260 262 264 266 268 271 273 275 276 278 279 281 283
221 223 223 224 224 225 227 227 228 229 231 232 231 231 229 232 233 235 237 237 237 239 241 243 245 247 249 251 254 256 258 259 261 264 266 268 270 272 274 276 278 279 281 283
222 223 223 224 225 226 226 225 226 228 230 231 229 228 228 232 234 235 235 236 237 238 240 242 245 246 248 250 252 255 257 259 261 263 265 267 270 272 274 276 278 280 281 283
221 223 224 225 225 227 226 224 227 228 229 230 230 228 229 231 233 234 235 235 236 237 239 242 245 246 248 250 252 254 257 259 261 263 265 268 270 272 275 277 279 281 282 284
221 222 225 226 225 229 226 226 228 229 228 230 232 231 231 232 233 233 234 235 236 238 240 242 244 247 249 251 253 254 256 258 260 263 266 268 271 273 275 277 279 281 283 284
222 224 226 226 226 226 225 225 227 229 228 228 231 231 232 232 232 232 234 235 236 238 240 242 244 246 249 252 254 255 257 259 261 264 267 269 271 273 276 277 279 281 283 284
224 226 228 227 226 224 220 223 226 228 227 225 228 229 230 231 233 232 233 235 236 237 239 242 244 246 249 251 253 255 257 259 262 264 266 268 271 274 276 278 280 282 283 285
226 227 227 227 227 221 217 222 225 227 224 224 227 228 229 231 232 229 231 234 235 236 238 241 243 245 247 249 252 254 257 259 261 264 266 269 271 274 276 278 280 282 284 285
228 228 228 228 226 219 218 222 224 225 224 225 227 227 229 230 230 229 231 233 235 236 238 240 243 245 247 249 251 254 257 259 261 264 267 269 272 274 276 278 281 283 284 286
228 228 229 228 224 220 221 223 223 223 223 224 225 226 228 229 230 231 232 234 236 237 239 240 242 244 246 248 251 254 257 259 261 264 266 269 272 274 277 279 281 283 285 287
226 226 226 226 222 221 221 223 223 222 222 222 223 224 226 228 231 232 233 235 237 238 239 241 242 243 246 249 251 254 257 259 261 264 266 270 273 275 277 279 281 284 286 288
225 226 226 224 221 221 220 221 221 220 222 223 224 225 225 227 230 232 234 236 237 237 239 240 241 244 246 249 252 254 256 258 261 264 268 271 273 275 278 280 282 285 287 290
226 227 226 223 221 221 218 219 219 219 220 223 225 226 227 229 231 233 234 235 235 235 237 240 242 244 246 249 251 253 256 259 263 266 268 270 273 276 278 281 284 286 288 291
Height
5665 5673 5682 5695 5704 5712 5718 5724 5731 5738 5742 5746 5750 5757 5764 5767 5772 5778 5782 5786 5791 5794 5796 5798 5801 5803 5805 5806 5807 5808 5808 5808 5808 5808 5807 5807 5806 5805 5804 5802 5801 5799 5798 5796
5652 5661 5678 5686 5692 5699 5705 5712 5720 5726 5731 5735 5740 5746 5753 5758 5763 5770 5775 5779 5783 5786 5789 5791 5793 5796 5798 5799 5800 5801 5801 5801 5801 5801 5801 5800 5800 5799 5797 5796 5794 5793 5791 5790
5642 5657 5667 5673 5680 5687 5694 5703 5711 5717 5721 5724 5729 5735 5743 5750 5754 5760 5766 5771 5775 5778 5782 5784 5786 5788 5790 5792 5793 5794 5794 5794 5794 5794 5794 5793 5793 5792 5790 5789 5787 5786 5785 5783
5631 5644 5652 5659 5668 5678 5686 5696 5701 5705 5709 5713 5718 5722 5734 5741 5746 5752 5758 5762 5767 5770 5773 5776 5778 5780 5783 5784 5785 5786 5787 5787 5787 5787 5786 5786 5786 5785 5783 5782 5781 5779 5778 5776
5620 5632 5640 5648 5661 5670 5678 5686 5690 5694 5697 5702 5707 5710 5723 5731 5737 5744 5750 5754 5758 5761 5764 5767 5770 5772 5774 5776 5777 5778 5779 5779 5779 5779 5779 5779 5778 5778 5776 5775 5773 5772 5771 5769
5612 5621 5629 5641 5652 5659 5666 5672 5677 5681 5684 5688 5699 5701 5709 5723 5731 5737 5742 5745 5749 5752 5755 5758 5761 5763 5765 5767 5769 5770 5771 5771 5771 5772 5771 5771 5771 5770 5768 5767 5766 5765 5763 5761
5599 5608 5618 5628 5637 5645 5652 5659 5665 5667 5670 5678 5690 5690 5699 5716 5724 5729 5733 5736 5739 5743 5746 5749 5752 5755 5757 5759 5760 5761 5762 5763 5763 5764 5764 5763 5763 5762 5761 5760 5758 5757 5756 5754
5589 5597 5607 5616 5625 5634 5641 5649 5655 5659 5664 5673 5678 5681 5694 5706 5715 5719 5723 5726 5729 5733 5737 5740 5743 5746 5748 5750 5751 5753 5754 5755 5755 5755 5755 5755 5755 5754 5753 5752 5751 5750 5748 5746
5580 5590 5600 5608 5617 5625 5630 5636 5646 5651 5655 5661 5665 5675 5687 5695 5704 5710 5714 5717 5721 5724 5728 5731 5734 5737 5739 5741 5743 5744 5745 5746 5747 5747 5747 5747 5747 5746 5745 5744 5743 5742 5740 5739
5570 5579 5588 5597 5604 5611 5621 5629 5634 5638 5644 5649 5656 5666 5678 5687 5695 5701 5705 5708 5712 5715 5719 5722 5725 5728 5730 5732 5734 5735 5737 5738 5738 5739 5739 5739 5738 5738 5737 5736 5735 5734 5732 5731
5560 5568 5577 5583 5590 5601 5609 5616 5622 5629 5635 5642 5648 5661 5673 5680 5686 5692 5696 5699 5703 5706 5710 5713 5716 5719 5721 5723 5725 5726 5728 5729 5730 5730 5731 5730 5730 5729 5729 5728 5727 5726 5724 5723
5550 5558 5565 5573 5584 5592 5599 5606 5614 5621 5627 5634 5641 5655 5663 5671 5677 5682 5686 5690 5694 5697 5701 5704 5707 5710 5712 5714 5716 5718 5719 5720 5721 5722 5722 5722 5722 5721 5721 5720 5719 5717 5716 5715
5539 5546 5554 5561 5571 5578 5584 5594 5602 5611 5618 5623 5631 5646 5655 5662 5667 5673 5677 5681 5685 5689 5692 5695 5698 5701 5703 5705 5707 5709 5710 5711 5712 5713 5713 5713 5713 5713 5712 5711 5710 5709 5708 5707
5528 5535 5544 5552 5560 5569 5576 5585 5592 5598 5604 5612 5623 5637 5646 5652 5658 5664 5668 5672 5676 5680 5683 5686 5689 5692 5694 5696 5698 5700 5701 5703 5704 5704 5705 5705 5705 5705 5704 5703 5702 5701 5700 5698
5518 5526 5533 5542 5550 5558 5566 5575 5582 5589 5598 5607 5619 5628 5638 5644 5649 5654 5659 5663 5667 5671 5674 5677 5680 5683 5685 5687 5689 5691 5692 5694 5695 5696 5696 5697 5696 5696 5695 5695 5694 5692 5691 5690
5509 5517 5525 5533 5540 5546 5553 5563 5571 5580 5590 5599 5609 5618 5629 5634 5639 5644 5649 5654 5658 5662 5665 5668 5671 5674 5676 5678 5680 5682 5684 5685 5686 5687 5688 5688 5688 5687 5687 5686 5685 5684 5682 5681
5501 5509 5516 5523 5530 5534 5542 5556 5564 5573 5582 5591 5599 5614 5620 5624 5629 5635 5639 5644 5648 5652 5656 5659 5662 5664 5667 5669 5671 5673 5675 5676 5677 5678 5679 5679 5679 5678 5678 5677 5676 5675 5673 5672
5494 5500 5506 5514 5520 5525 5542 5551 5557 5565 5575 5584 5593 5602 5608 5614 5619 5623 5628 5633 5638 5642 5646 5649 5652 5655 5657 5660 5662 5664 5666 5667 5669 5669 5670 5670 5670 5669 5669 5668 5667 5666 5664 5662
5486 5492 5498 5505 5510 5519 5533 5543 5550 5557 5567 5577 5584 5592 5598 5602 5606 5612 5618 5623 5628 5632 5636 5639 5643 5646 5648 5651 5653 5655 5657 5658 5659 5660 5661 5661 5661 5660 5660 5659 5658 5656 5655 5653
5478 5483 5490 5496 5503 5513 5529 5537 5542 5548 5556 5569 5573 5580 5585 5589 5594 5605 5611 5613 5617 5622 5626 5630 5633 5637 5640 5642 5644 5646 5648 5649 5650 5651 5651 5652 5652 5651 5651 5650 5649 5647 5645 5643
5469 5474 5480 5488 5495 5507 5521 5527 5532 5540 5552 5560 5564 5569 5573 5579 5588 5597 5598 5602 5607 5612 5617 5620 5624 5627 5630 5632 5635 5637 5638 5640 5641 5641 5642 5642 5642 5642 5641 5640 5639 5637 5636 5634
5462 5468 5474 5480 5489 5504 5514 5518 5525 5533 5542 5548 5553 5558 5565 5572 5578 5583 5587 5592 5597 5602 5606 5610 5614 5618 5621 5623 5626 5628 5629 5631 5631 5632 5632 5633 5632 5632 5631 5631 5629 5628 5626 5624
5455 5462 5468 5476 5488 5498 5503 5509 5517 5524 5531 5537 5543 5549 5556 5562 5568 5573 5578 5583 5587 5592 5597 5601 5604 5608 5611 5614 5616 5619 5620 5621 5622 5622 5623 5623 5623 5622 5622 5621 5619 5618 5616 5613
5448 5454 5460 5468 5478 5487 5494 5501 5508 5515 5522 5528 5534 5541 5547 5553 5558 5564 5569 5574 5578 5583 5587 5591 5595 5599 5602 5605 5607 5609 5610 5611 5612 5613 5614 5614 5613 5613 5612 5611 5609 5608 5605 5603
5441 5446 5452 5460 5470 5477 5485 5493 5500 5507 5513 5519 5526 5532 5538 5544 5550 5555 5560 5565 5570 5574 5579 5582 5586 5590 5593 5596 5598 5600 5601 5602 5603 5604 5604 5604 5604 5603 5602 5601 5599 5597 5595 5592
5435 5440 5446 5454 5463 5469 5478 5485 5491 5498 5505 5511 5518 5524 5530 5536 5542 5547 5552 5557 5561 5566 5570 5574 5577 5581 5584 5586 5588 5590 5592 5593 5594 5594 5594 5594 5594 5593 5592 5590 5588 5586 5584 5581